LUDI TANCE-4 01A

Last updated on Mon Sep 21 2026 00:03:03 GMT+0000 (Coordinated Universal Time)

1 57624U 23120A 26262.80719595 -.00000198 00000+0 00000+0 0 9991 2 57624 15.0449 191.6453 0003757 43.5723 143.6296 1.00275980 11492
UTC large
Height (km)
Speed (km/s)
/
Latitude / Longitude
Inclination (degrees)
Orbital Period (minutes)
Azimuth
Elevation
Range (km)
Doppler Factor

Next 0 passes for location: London (51.5072 / 0.1276)

No passes found over London.
LUDI TANCE-4 01A